Jerome, ID

7:21 AM MDT on September 23, 2017 (GMT -0600)
Jerome County

Weather History for KJER - May, 2013

Change the Weather History Date:

Sunday, May 5, 2013

  Actual Average Record
Temperature  
Mean Temperature 59 °F 52 °F  
Max Temperature 73 °F 64 °F 92 °F (1966)
Min Temperature 44 °F 39 °F 27 °F (1982)
Degree Days  
Heating Degree Days 6 13  
Month to date heating degree days 69 70  
Since 1 July heating degree days 5990 6273  
Cooling Degree Days 0 0  
Month to date cooling degree days 0 0  
Year to date cooling degree days 0 0  
Growing Degree Days 8 (Base 50)    
Moisture  
Dew Point 33 °F    
Average Humidity 46    
Maximum Humidity 70    
Minimum Humidity 22    
Precipitation  
Precipitation 0.00 in 0.05 in 0.32 in (1995)
Month to date precipitation T 0.28  
Year to date precipitation 2.20 4.64  
Sea Level Pressure  
Sea Level Pressure 29.84 in    
Wind  
Wind Speed 17 mph (ENE)    
Max Wind Speed 30 mph    
Max Gust Speed 37 mph    
Visibility 10 miles    
Events      
T = Trace of Precipitation, MM = Missing Value Source: NWS Daily Summary

Daily Weather History Graph

Daily Weather History Graph

Search for Another Location

Airport or City:

Trip Planner

Search our weather history database for the weather conditions in past years. The results will help you decide how hot, cold, wet, or windy it might be!

Date:

Astronomy

May. 05, 2013 Rise Set
Actual Time 6:26 AM MDT 8:43 PM MDT
Civil Twilight 5:55 AM MDT 9:14 PM MDT
Nautical Twilight 5:16 AM MDT 9:53 PM MDT
Astronomical Twilight 4:33 AM MDT 10:36 PM MDT
Moon 4:05 AM MDT (5/5) 4:41 PM MDT (5/5)
Length of Visible Light 15h 19m
Length of Day
14h 16m
Waning Crescent, 17% of the Moon is Illuminated
May 5
Waning Crescent
May 9
New
May 17
First Quarter
May 24
Full
May 31
Last Quarter

Hourly Weather History & Observations

Time (MDT) Temp. Windchill Dew Point Humidity Pressure Visibility Wind Dir Wind Speed Gust Speed Precip Events Conditions
12:53 AM 45.0 °F 39.3 °F 35.1 °F 68% 29.90 in 10.0 mi East 11.5 mph - N/A   Clear
1:53 AM 46.9 °F - 34.0 °F 61% 29.88 in 10.0 mi NE 17.3 mph - N/A   Clear
2:53 AM 46.9 °F - 34.0 °F 61% 29.87 in 10.0 mi NE 19.6 mph - N/A   Clear
3:53 AM 48.0 °F - 33.1 °F 56% 29.85 in 10.0 mi NE 23.0 mph - N/A   Clear
4:53 AM 46.9 °F - 33.1 °F 59% 29.87 in 10.0 mi NE 23.0 mph - N/A   Clear
5:53 AM 46.9 °F - 33.1 °F 59% 29.87 in 10.0 mi NE 21.9 mph - N/A   Clear
6:53 AM 48.0 °F - 32.0 °F 54% 29.88 in 10.0 mi NE 24.2 mph 32.2 mph N/A   Clear
7:53 AM 50.0 °F - 33.1 °F 52% 29.89 in 10.0 mi NE 23.0 mph - N/A   Clear
8:53 AM 55.9 °F - 33.1 °F 42% 29.89 in 10.0 mi NE 25.3 mph 35.7 mph N/A   Clear
9:53 AM 59.0 °F - 34.0 °F 39% 29.89 in 10.0 mi NE 28.8 mph 35.7 mph N/A   Clear
10:53 AM 63.0 °F - 34.0 °F 34% 29.88 in 10.0 mi ENE 25.3 mph 34.5 mph N/A   Clear
12:53 PM 68.0 °F - 32.0 °F 26% 29.86 in 10.0 mi East 15.0 mph 24.2 mph N/A   Clear
1:53 PM 68.0 °F - 33.1 °F 27% 29.83 in 10.0 mi East 15.0 mph 23.0 mph N/A   Clear
2:53 PM 66.9 °F - 32.0 °F 27% 29.83 in 10.0 mi East 16.1 mph - N/A   Clear
3:53 PM 71.1 °F - 33.1 °F 25% 29.79 in 10.0 mi ENE 11.5 mph - N/A   Clear
4:53 PM 71.1 °F - 30.0 °F 22% 29.78 in 10.0 mi East 9.2 mph 16.1 mph N/A   Clear
5:53 PM 70.0 °F - 30.0 °F 23% 29.77 in 10.0 mi East 12.7 mph - N/A   Clear
6:53 PM 69.1 °F - 30.9 °F 24% 29.77 in 10.0 mi ENE 9.2 mph - N/A   Clear
7:53 PM 64.9 °F - 36.0 °F 34% 29.77 in 10.0 mi NE 6.9 mph - N/A   Clear
8:53 PM 60.1 °F - 34.0 °F 38% 29.78 in 10.0 mi NE 11.5 mph - N/A   Partly Cloudy
9:53 PM 59.0 °F - 34.0 °F 39% 29.79 in 10.0 mi NE 10.4 mph - N/A   Scattered Clouds
10:53 PM 60.1 °F - 34.0 °F 38% 29.80 in 10.0 mi NNE 18.4 mph - N/A   Clear
11:53 PM 55.0 °F - 34.0 °F 45% 29.79 in 10.0 mi NE 16.1 mph - N/A   Clear